Location: Newark
(43.6583°N, 1.6617°E)
Time: 21:03:57
(UTC+00:00)

Transit 4A - Pass Details

Date: 01 September 2019
Orbit: 867 x 978 km, 66.8° (Epoch: 23 October)

Event Time Altitude Azimuth Distance (km) Brightness Sun altitude
Rises 17:38:42 0° 259° (W) 3,673 12.9 8.3°
Reaches altitude 10° 17:41:58 10° 275° (W) 2,727 14.3 7.7°
Maximum altitude 17:46:41 21° 323° (NW) 2,034 10.4 6.9°
Drops below altitude 10° 17:51:22 10° 11° (N) 2,709 10.3 6.0°
Sets 17:54:38 0° 27° (NNE) 3,642 10.8 5.4°
